[[{"header":{"parameterUnit":"m.s-1","parameterCategory":2,"la1":30.2991,"la2":30.254,"lo1":-89.0895,"lo2":-89.0444,"dy":0.0017,"dx":0.0017,"nx":28,"ny":28,"refTime":"2024-06-20T21:00:00:Z","depth":"0","parameterNumber":2,"parameterNumberName":"U-component_of_CURRENTS"},"data":[0,0,0,0,0,0,0,0,0,0,0,0,0,0,0,0,0,0,0,0,0,0,0,0,0,0,0,0,0,0,0,0,0,0,0,0,0,0,0,0,0,0,0,0,0,0,0,0,0,0,0,0,0,0,0,0,0,0,0.3456,0.3457,0,0.3475,0.3475,0.3475,0.3457,0.3456,0.3456,0.3456,0.3403,0.3402,0.3401,0,0,0,0,0,0,0,0,0,0,0,0,0,0.3408,0.3409,0.3456,0.3457,0.3457,0.3475,0.3475,0.3475,0.3457,0.3456,0.3456,0.3456,0.3403,0.3402,0.34,0,0,0,0,0,0,0,0,0,0,0,0,0,0.3424,0.3409,0.3456,0.3454,0.3454,0.3475,0.3475,0.3474,0.3457,0.3456,0.3456,0.3455,0.3404,0.3402,0.34,0.3399,0,0,0.3395,0.3394,0,0,0,0,0,0,0,0,0.3423,0.3425,0.3454,0.3454,0.3455,0.3467,0.3439,0.3447,0.3457,0.3451,0.3456,0.3455,0.3421,0.3418,0.3417,0.3396,0.3394,0.3395,0.3394,0.3393,0.3393,0,0,0,0,0,0,0,0.3422,0.3424,0.3459,0.3454,0.3455,0.3454,0.3455,0.344,0.3433,0.3451,0.3451,0.3461,0.342,0.3419,0.3415,0.3393,0.3395,0.3393,0.3392,0.3392,0.34,0.3401,0,0,0,0,0,0,0.3429,0.3423,0.3458,0.346,0.3443,0.3455,0.3456,0.346,0.3435,0.3433,0.3461,0.346,0.3422,0.3417,0.3413,0.3431,0.3393,0.3392,0.3391,0.3398,0.34,0.3401,0,0,0,0,0,0,0.3428,0.3432,0.3458,0.3446,0.345,0.3457,0.3461,0.346,0.3462,0.3444,0.3439,0.3463,0.3421,0.3416,0.3413,0.3427,0.3391,0.3389,0.3397,0.3399,0.34,0.3452,0,0,0,0,0,0,0.3426,0.3431,0.3433,0.3446,0.3451,0.3466,0.3462,0.3461,0.347,0.3469,0.3444,0.3439,0.342,0.3416,0.3411,0.3424,0.3388,0.3395,0.3398,0.34,0.3448,0.3455,0.3461,0,0,0,0,0,0.3425,0.3427,0.3433,0.3437,0.3454,0.3467,0.3468,0.3469,0.3471,0.3468,0.3465,0.344,0.3427,0.3415,0.341,0.3423,0.3394,0.3397,0.34,0.3446,0.3454,0.3461,0,0,0,0,0,0,0.3401,0.3427,0.3433,0.3441,0.3454,0.3465,0.3468,0.3474,0.347,0.3471,0.3451,0.3446,0.3451,0.3433,0.3421,0.3434,0.3408,0.341,0.3445,0.3452,0.3458,0.3467,0.3387,0,0,0,0,0,0.3401,0.3411,0.3433,0.3439,0.3448,0.3461,0.3467,0.3471,0.3475,0.3474,0.3459,0.3453,0.3459,0.3452,0.3445,0.3447,0.3434,0.3455,0.3461,0.3466,0.3471,0.3473,0.3479,0.341,0.341,0.341,0,0,0.3393,0.341,0.3415,0.3435,0.3446,0.3464,0.3461,0.3475,0.3492,0.3468,0.3475,0.347,0.3466,0.3475,0.3475,0.3459,0.3479,0.3469,0.3474,0.3476,0.3476,0.3483,0.3489,0.3412,0.3412,0.3411,0,0,0.3389,0.34,0.341,0.3426,0.3452,0.3465,0.3472,0.3486,0.3492,0.3505,0.3502,0.3513,0.35,0.3509,0.3513,0.355,0.3514,0.3543,0.3575,0.3577,0.3582,0.3587,0.3578,0.3581,0.3543,0.3543,0.3543,0,0.338,0.3397,0.3413,0.3432,0.3451,0.3468,0.3487,0.3502,0.3512,0.3525,0.351,0.3531,0.3523,0.3557,0.3574,0.3564,0.3551,0.3546,0.3584,0.3588,0.3592,0.3582,0.3585,0.3546,0.3546,0.3545,0.3545,0,0.3388,0.3404,0.3412,0.3447,0.3466,0.3483,0.3516,0.353,0.3543,0.3559,0.3586,0.3583,0.3596,0.36,0.3598,0.363,0.3607,0.3593,0.3563,0.3602,0.3589,0.3591,0.355,0.3549,0.3548,0.3547,0,0,0.3361,0.3409,0.3412,0.3427,0.3477,0.3488,0.3533,0.3573,0.36,0.3611,0.3641,0.3666,0.3665,0.3671,0.3668,0.3673,0.3693,0.3646,0.3645,0.3633,0.3686,0.3639,0.3636,0.368,0.368,0.3681,0.3666,0,0.3362,0.3397,0.3425,0.3454,0.3475,0.3514,0.355,0.3592,0.3624,0.3652,0.3676,0.3696,0.3694,0.3697,0.3709,0.3699,0.3701,0.3698,0.3654,0.3653,0.3603,0.3639,0.3505,0.3477,0.3668,0.3668,0.3668,0,0.3359,0.3388,0.3416,0.3461,0.3473,0.3494,0.3556,0.3592,0.3658,0.3682,0.3722,0.3732,0.3766,0.3742,0.3753,0.3748,0.3725,0.371,0.3708,0.3648,0.361,0.347,0.3473,0.3412,0.3671,0.3671,0.3671,0,0.3327,0.3375,0.3394,0.3411,0.3469,0.3487,0.3526,0.3598,0.3638,0.3701,0.3728,0.3766,0.378,0.3772,0.3762,0.3752,0.3755,0.3734,0.367,0.3665,0.3535,0.3518,0.347,0.3731,0.3731,0.3732,0.3732,0,0.3313,0.3325,0.3375,0.3383,0.3411,0.3464,0.3509,0.3556,0.3632,0.367,0.3735,0.3756,0.3786,0.3796,0.3773,0.3736,0.3766,0.3683,0.3663,0.3549,0.3535,0.3462,0.342,0.3731,0.3731,0.3731,0.3731,0,0.3267,0.3299,0.3321,0.3377,0.3391,0.3414,0.3498,0.3525,0.3612,0.3663,0.3681,0.3757,0.3771,0.3793,0.378,0.3743,0.3599,0.3685,0.3549,0.3514,0.3387,0.3352,0.3126,0.3035,0.3605,0.3604,0.3603,0,0.3246,0.3251,0.3304,0.331,0.3328,0.3378,0.3401,0.3499,0.3533,0.3644,0.3645,0.3707,0.3716,0.371,0.3672,0.3636,0.3536,0.3473,0.3435,0.337,0.3317,0.3177,0.3107,0.3279,0.3276,0.3273,0.3271,0,0.3208,0.3223,0.3242,0.3258,0.3271,0.3296,0.334,0.3363,0.3462,0.35,0.3528,0.355,0.3599,0.351,0.3503,0.3459,0.3302,0.3412,0.3371,0.3084,0.2897,0.2804,0.3305,0.3245,0.3247,0.3249,0.325,0.3252,0.3173,0.3173,0.3187,0.3179,0.3191,0.3165,0.3133,0.3177,0.3189,0.3188,0.3333,0.3308,0.3354,0.3331,0.3275,0.3145,0.312,0.3035,0.3006,0.2879,0.2755,0.3206,0.3111,0.3113,0.3114,0.3116,0.3117,0,0.3099,0.3094,0.31,0.306,0.2998,0.3049,0.3034,0.2961,0.2883,0.2974,0.2985,0.301,0.2943,0.297,0.2907,0.2775,0.2632,0.2678,0.2463,0.2424,0.2855,0.2812,0.2614,0.2614,0.2614,0.2614,0.2614,0.2615,0.3061,0.3014,0.2996,0.2854,0.2816,0.2679,0.2628,0.2548,0.2568,0.2504,0.2512,0.2587,0.272,0.2693,0.2572,0.2497,0.2307,0.2146,0.2164,0.2509,0.254,0.257,0.2524,0.2268,0.2268,0.1633,0.1628,0.1624]},{"header":{"parameterUnit":"m.s-1","parameterCategory":2,"la1":30.2991,"la2":30.254,"lo1":-89.0895,"lo2":-89.0444,"dy":0.0017,"dx":0.0017,"nx":28,"ny":28,"refTime":"2024-06-20T21:00:00:Z","depth":"0","parameterNumber":3,"parameterNumberName":"V-component_of_CURRENTS"},"data":[0,0,0,0,0,0,0,0,0,0,0,0,0,0,0,0,0,0,0,0,0,0,0,0,0,0,0,0,0,0,0,0,0,0,0,0,0,0,0,0,0,0,0,0,0,0,0,0,0,0,0,0,0,0,0,0,0,0,0.0213,0.0213,0,0.0178,0.0178,0.0177,0.0154,0.0154,0.0154,0.0154,0.0105,0.0104,0.0102,0,0,0,0,0,0,0,0,0,0,0,0,0,0.0223,0.0223,0.0213,0.0213,0.0213,0.0178,0.0178,0.0177,0.0154,0.0154,0.0154,0.0154,0.0105,0.0104,0.0102,0,0,0,0,0,0,0,0,0,0,0,0,0,0.0206,0.0223,0.0213,0.0197,0.0196,0.0178,0.0178,0.0177,0.0154,0.0154,0.0154,0.0154,0.0106,0.0104,0.0102,0.0093,0,0,0.0096,0.0096,0,0,0,0,0,0,0,0,0.0207,0.0205,0.02,0.0199,0.0197,0.0171,0.0163,0.0148,0.0154,0.0169,0.0154,0.0154,0.0126,0.0123,0.0115,0.0091,0.0089,0.0096,0.0095,0.0094,0.0094,0,0,0,0,0,0,0,0.0208,0.0207,0.0198,0.02,0.0198,0.0179,0.0177,0.016,0.0148,0.0168,0.0166,0.0164,0.0125,0.0117,0.0114,0.0088,0.0096,0.0095,0.0094,0.0093,0.0061,0.0061,0,0,0,0,0,0,0.0216,0.0208,0.02,0.0198,0.0203,0.018,0.0177,0.0179,0.0148,0.0144,0.0164,0.0163,0.012,0.0116,0.0112,0.0116,0.0094,0.0093,0.0092,0.006,0.0061,0.0061,0,0,0,0,0,0,0.0217,0.0216,0.0201,0.0202,0.0199,0.018,0.0182,0.0178,0.0173,0.0146,0.0141,0.0164,0.012,0.0115,0.0102,0.0113,0.0092,0.009,0.006,0.0061,0.0061,0.0113,0,0,0,0,0,0,0.0217,0.0217,0.0221,0.0203,0.02,0.0199,0.0182,0.0177,0.0172,0.0171,0.0144,0.0139,0.012,0.0105,0.01,0.011,0.0089,0.006,0.006,0.0061,0.0111,0.0115,0.0118,0,0,0,0,0,0.0218,0.0226,0.0221,0.022,0.0206,0.02,0.0197,0.0181,0.0173,0.0175,0.0155,0.014,0.0104,0.0104,0.0098,0.0108,0.006,0.006,0.0061,0.0109,0.0114,0.0118,0,0,0,0,0,0,0.023,0.0224,0.0218,0.0224,0.0216,0.0196,0.0196,0.0186,0.0172,0.0168,0.0142,0.0136,0.0129,0.011,0.0109,0.0099,0.008,0.0079,0.0118,0.0123,0.0127,0.0143,0.0087,0,0,0,0,0,0.0236,0.0242,0.0231,0.0235,0.0233,0.0215,0.021,0.0201,0.0186,0.0179,0.0162,0.0141,0.0126,0.0118,0.01,0.0095,0.0079,0.0097,0.0101,0.0104,0.0114,0.0099,0.0102,0.0063,0.0063,0.0063,0,0,0.024,0.0239,0.0241,0.0238,0.0229,0.0236,0.0212,0.0208,0.0217,0.0176,0.0179,0.0153,0.0127,0.0121,0.0116,0.0108,0.0106,0.0105,0.0108,0.0116,0.01,0.0104,0.0107,0.0063,0.0063,0.0063,0,0,0.0257,0.0252,0.0266,0.0265,0.0259,0.0249,0.0252,0.0237,0.0234,0.0231,0.0204,0.0186,0.0165,0.0148,0.0137,0.0151,0.0126,0.0144,0.0179,0.0164,0.0167,0.017,0.0153,0.0154,0.0147,0.0147,0.0147,0,0.0263,0.0282,0.0268,0.0283,0.0289,0.0261,0.028,0.0272,0.0255,0.026,0.024,0.0208,0.018,0.0177,0.0178,0.0161,0.0148,0.0165,0.017,0.0172,0.0174,0.0156,0.0156,0.015,0.015,0.0149,0.0149,0,0.0295,0.031,0.0317,0.0331,0.0334,0.0344,0.0335,0.0336,0.0324,0.0315,0.0309,0.0265,0.0249,0.0233,0.0208,0.021,0.0195,0.0177,0.0162,0.0182,0.0161,0.016,0.0154,0.0153,0.0152,0.0151,0,0,0.0318,0.0338,0.0343,0.0365,0.0364,0.0375,0.0386,0.0397,0.0419,0.0384,0.0408,0.0358,0.033,0.0315,0.0277,0.0258,0.0251,0.0227,0.0225,0.0216,0.0219,0.022,0.0219,0.0236,0.0236,0.0236,0.0199,0,0.0352,0.0397,0.0396,0.0439,0.0464,0.045,0.047,0.0472,0.0469,0.0482,0.0431,0.0429,0.0364,0.0356,0.0326,0.0279,0.0252,0.0262,0.0196,0.0194,0.0198,0.022,0.0263,0.0235,0.0198,0.0198,0.0198,0,0.0395,0.0422,0.0473,0.0511,0.0521,0.0537,0.0575,0.0593,0.0594,0.0592,0.0569,0.0528,0.0492,0.0433,0.0354,0.0365,0.0296,0.0248,0.0245,0.023,0.0195,0.0208,0.0235,0.0149,0.0196,0.0196,0.0196,0,0.0438,0.0481,0.0529,0.0541,0.0573,0.0594,0.0611,0.0626,0.0668,0.0664,0.0693,0.0622,0.0612,0.0513,0.0401,0.038,0.0319,0.0277,0.0207,0.0205,0.0222,0.0222,0.0165,0.0214,0.0214,0.0214,0.0215,0,0.0487,0.0524,0.0553,0.0581,0.065,0.0647,0.0722,0.0729,0.0763,0.0837,0.0756,0.0795,0.0634,0.0574,0.0446,0.0339,0.0349,0.0223,0.0202,0.024,0.0243,0.0151,0.0074,0.0213,0.0213,0.0214,0.0214,0,0.0531,0.0548,0.0608,0.065,0.0675,0.0725,0.0804,0.0859,0.0879,0.0976,0.0979,0.0935,0.0862,0.0698,0.0549,0.0421,0.0247,0.0248,0.0303,0.0289,0.0138,0.0062,-0.0033,-0.0075,0.0168,0.0168,0.0168,0,0.0557,0.0593,0.0668,0.0719,0.0742,0.0819,0.0881,0.0918,0.0993,0.1078,0.1136,0.1084,0.1086,0.0863,0.062,0.0401,0.0268,0.0272,0.0231,0.0148,0.0047,-0.0004,-0.0036,0.0268,0.0269,0.0269,0.027,0,0.0608,0.0633,0.0687,0.0795,0.0869,0.0968,0.1058,0.1138,0.121,0.1297,0.1399,0.1404,0.1204,0.1016,0.0697,0.0523,0.0222,0.0277,0.0181,0.0117,0.0068,0.0014,0.0266,0.0275,0.0275,0.0274,0.0274,0.0274,0.0647,0.0698,0.0776,0.0882,0.0977,0.1108,0.1201,0.1313,0.1459,0.1603,0.1601,0.166,0.1371,0.0958,0.0704,0.0296,0.0263,0.0179,0.0092,0.0048,0.0015,0.0279,0.0269,0.0269,0.0268,0.0268,0.0268,0,0.07,0.0763,0.0859,0.0986,0.1099,0.1143,0.1318,0.1422,0.1607,0.1748,0.1842,0.178,0.1421,0.1015,0.0461,0.0175,0.0061,0.0018,-0.0041,-0.0069,0.0171,0.0184,0.0169,0.0169,0.0169,0.0169,0.017,0.017,0.073,0.0829,0.0881,0.1072,0.1163,0.1326,0.1433,0.1591,0.1732,0.1922,0.1997,0.2026,0.1768,0.0796,0.0161,-0.0012,-0.0205,-0.0239,-0.0349,-0.0183,-0.0174,-0.0166,-0.0168,-0.0257,-0.0258,-0.0517,-0.052,-0.0522]}],[{"header":{"parameterUnit":"m.s-1","parameterCategory":2,"la1":30.2991,"la2":30.254,"lo1":-89.0895,"lo2":-89.0444,"dy":0.0017,"dx":0.0017,"nx":28,"ny":28,"refTime":"2024-06-20T21:00:00:Z","depth":"2","parameterNumber":2,"parameterNumberName":"U-component_of_CURRENTS"},"data":[0,0,0,0,0,0,0,0,0,0,0,0,0,0,0,0,0,0,0,0,0,0,0,0,0,0,0,0,0,0,0,0,0,0,0,0,0,0,0,0,0,0,0,0,0,0,0,0,0,0,0,0,0,0,0,0,0,0,0.2671,0.2671,0,0.2681,0.2681,0.2681,0.2679,0.2679,0.2679,0.2679,0.2684,0.2684,0.2684,0,0,0,0,0,0,0,0,0,0,0,0,0,0.2669,0.2669,0.2671,0.2671,0.2671,0.2681,0.2681,0.2681,0.2679,0.2679,0.2679,0.2679,0.2684,0.2684,0.2684,0,0,0,0,0,0,0,0,0,0,0,0,0,0.2672,0.2669,0.2671,0.2673,0.2674,0.2681,0.2681,0.2681,0.2679,0.2679,0.2679,0.2679,0.2684,0.2684,0.2684,0.2685,0,0,0.2685,0.2685,0,0,0,0,0,0,0,0,0.2672,0.2671,0.2672,0.2673,0.2673,0.2681,0.2683,0.2683,0.2679,0.2674,0.2679,0.2679,0.2684,0.2684,0.2683,0.2685,0.2685,0.2685,0.2685,0.2685,0.2685,0,0,0,0,0,0,0,0.2671,0.2671,0.2672,0.2673,0.2673,0.2681,0.2681,0.2683,0.2677,0.2675,0.2675,0.268,0.2684,0.2682,0.2683,0.2685,0.2685,0.2685,0.2685,0.2685,0.2741,0.2742,0,0,0,0,0,0,0.2673,0.2671,0.2672,0.2673,0.2675,0.2681,0.2681,0.2676,0.2677,0.2678,0.268,0.268,0.2682,0.2683,0.2683,0.2729,0.2685,0.2685,0.2685,0.2739,0.2741,0.2743,0,0,0,0,0,0,0.2673,0.2673,0.2672,0.2675,0.2675,0.2681,0.2676,0.2677,0.269,0.2681,0.2682,0.2694,0.2682,0.2683,0.27,0.2727,0.2685,0.2685,0.2738,0.274,0.2742,0.2791,0,0,0,0,0,0,0.2673,0.2673,0.2676,0.2674,0.2675,0.2679,0.2676,0.2677,0.2693,0.2693,0.2694,0.2693,0.2682,0.27,0.27,0.2727,0.2685,0.2736,0.2739,0.2741,0.2788,0.2795,0.2801,0,0,0,0,0,0.2673,0.267,0.2676,0.2676,0.2677,0.268,0.2681,0.2684,0.2694,0.2696,0.2706,0.2694,0.2717,0.2701,0.2701,0.2728,0.2735,0.2738,0.2741,0.2785,0.2793,0.2801,0,0,0,0,0,0,0.2668,0.267,0.2676,0.2674,0.2681,0.268,0.2686,0.2695,0.2705,0.2712,0.2706,0.2706,0.2734,0.2725,0.2708,0.2753,0.2726,0.2729,0.276,0.2767,0.2774,0.2779,0.2686,0,0,0,0,0,0.2671,0.2671,0.2676,0.2677,0.2681,0.269,0.2696,0.2701,0.2709,0.2713,0.2716,0.2727,0.2744,0.2751,0.2756,0.2778,0.2777,0.2798,0.2804,0.281,0.2815,0.2842,0.2851,0.2753,0.2753,0.2753,0,0,0.2669,0.2672,0.2673,0.2677,0.2683,0.2695,0.2693,0.2705,0.2725,0.2713,0.2739,0.2747,0.2756,0.2781,0.2793,0.2778,0.2838,0.2814,0.2818,0.2821,0.2846,0.2855,0.2864,0.2755,0.2754,0.2754,0,0,0.2666,0.2671,0.2672,0.2682,0.2698,0.2706,0.2715,0.2725,0.2739,0.2767,0.277,0.2797,0.2813,0.2826,0.2837,0.2883,0.2871,0.2888,0.2924,0.295,0.2958,0.2965,0.2977,0.2984,0.2891,0.2891,0.2891,0,0.2669,0.2668,0.2674,0.2683,0.2696,0.2715,0.2727,0.2747,0.2764,0.2782,0.2782,0.2831,0.2838,0.2881,0.2902,0.2898,0.2905,0.2892,0.2958,0.2965,0.2971,0.2981,0.2989,0.2894,0.2893,0.2893,0.2893,0,0.2666,0.2674,0.2678,0.2698,0.2714,0.2726,0.2755,0.2778,0.2805,0.2826,0.2874,0.2888,0.2917,0.2931,0.2934,0.2988,0.2975,0.2962,0.2936,0.2984,0.2992,0.2999,0.2898,0.2897,0.2896,0.2895,0,0,0.2648,0.2671,0.2674,0.2683,0.2723,0.2729,0.2778,0.2814,0.2852,0.2882,0.2929,0.2972,0.2983,0.2997,0.3005,0.3035,0.3091,0.3024,0.3024,0.3032,0.3143,0.3075,0.3076,0.309,0.3092,0.3093,0.313,0,0.2646,0.2659,0.2678,0.27,0.2709,0.2749,0.2789,0.2833,0.2881,0.293,0.2969,0.3016,0.3008,0.3035,0.3063,0.3091,0.3113,0.3082,0.3099,0.3099,0.303,0.3083,0.2828,0.2834,0.3137,0.3138,0.3139,0,0.2633,0.2647,0.2662,0.2698,0.2707,0.2733,0.2801,0.2843,0.2927,0.2967,0.3024,0.3054,0.3116,0.31,0.316,0.3142,0.3148,0.316,0.3161,0.3084,0.3044,0.2836,0.2835,0.3151,0.315,0.3149,0.3148,0,0.2602,0.2632,0.2642,0.2655,0.2704,0.273,0.2772,0.2855,0.2905,0.3002,0.3049,0.3111,0.3159,0.3182,0.321,0.3194,0.3268,0.3241,0.3179,0.3173,0.2952,0.2925,0.3275,0.3275,0.3275,0.3275,0.3275,0,0.2579,0.2587,0.2628,0.2632,0.2662,0.2714,0.2771,0.2829,0.2929,0.2986,0.3066,0.3119,0.3186,0.3231,0.3235,0.3234,0.3284,0.3196,0.3185,0.2962,0.2937,0.3205,0.3196,0.3276,0.3276,0.3275,0.3275,0,0.2533,0.2558,0.2572,0.2624,0.2643,0.2671,0.2767,0.2809,0.2917,0.3,0.3035,0.315,0.3211,0.3253,0.3305,0.3264,0.3271,0.325,0.2983,0.294,0.315,0.3144,0.3185,0.3183,0.3181,0.318,0.3179,0,0.2506,0.2507,0.2556,0.2567,0.259,0.2646,0.268,0.2792,0.2843,0.3001,0.3026,0.3138,0.3173,0.3231,0.3194,0.318,0.3249,0.2928,0.2849,0.3159,0.3144,0.3141,0.3137,0.2573,0.2567,0.2562,0.2558,0,0.246,0.248,0.2492,0.2519,0.2546,0.2577,0.2641,0.2676,0.2802,0.2864,0.2946,0.2998,0.3072,0.2949,0.2954,0.2911,0.2911,0.2827,0.3223,0.2643,0.2587,0.2571,0.2586,0.2514,0.2519,0.2522,0.2524,0.2526,0.2428,0.2424,0.2442,0.245,0.2479,0.2482,0.2472,0.2534,0.2578,0.263,0.2768,0.2751,0.278,0.2659,0.2568,0.2495,0.2696,0.2554,0.2566,0.2585,0.2515,0.246,0.235,0.2353,0.2356,0.2359,0.2361,0,0.2365,0.2363,0.2371,0.236,0.2335,0.2392,0.241,0.2367,0.2344,0.2425,0.2459,0.227,0.2186,0.2219,0.2037,0.2028,0.1989,0.1941,0.186,0.1906,0.1946,0.1841,0.1499,0.1496,0.1493,0.1491,0,0,0.2334,0.2298,0.2284,0.2205,0.2201,0.2131,0.2111,0.2068,0.2081,0.202,0.1985,0.2126,0.2179,0.1826,0.1766,0.1601,0.1745,0.1539,0.2235,0.2188,0.2225,0.2307,0.2199,0,0,0,0,0]},{"header":{"parameterUnit":"m.s-1","parameterCategory":2,"la1":30.2991,"la2":30.254,"lo1":-89.0895,"lo2":-89.0444,"dy":0.0017,"dx":0.0017,"nx":28,"ny":28,"refTime":"2024-06-20T21:00:00:Z","depth":"2","parameterNumber":3,"parameterNumberName":"V-component_of_CURRENTS"},"data":[0,0,0,0,0,0,0,0,0,0,0,0,0,0,0,0,0,0,0,0,0,0,0,0,0,0,0,0,0,0,0,0,0,0,0,0,0,0,0,0,0,0,0,0,0,0,0,0,0,0,0,0,0,0,0,0,0,0,0.0272,0.0272,0,0.0241,0.0241,0.024,0.0215,0.0214,0.0214,0.0214,0.017,0.0169,0.0168,0,0,0,0,0,0,0,0,0,0,0,0,0,0.0268,0.0268,0.0272,0.0272,0.0271,0.0241,0.0241,0.024,0.0215,0.0214,0.0214,0.0214,0.017,0.0169,0.0168,0,0,0,0,0,0,0,0,0,0,0,0,0,0.0256,0.0269,0.0272,0.0255,0.0254,0.0241,0.0241,0.024,0.0215,0.0214,0.0214,0.0214,0.0171,0.0169,0.0168,0.0165,0,0,0.0163,0.0163,0,0,0,0,0,0,0,0,0.0257,0.0256,0.0258,0.0257,0.0255,0.0232,0.0223,0.0214,0.0215,0.0229,0.0214,0.0214,0.019,0.0187,0.0181,0.0163,0.0161,0.0163,0.0162,0.0162,0.0161,0,0,0,0,0,0,0,0.0258,0.0257,0.0259,0.0258,0.0256,0.0236,0.0234,0.0221,0.0211,0.0227,0.0226,0.0224,0.0189,0.0183,0.018,0.016,0.0163,0.0162,0.0161,0.016,0.0141,0.0141,0,0,0,0,0,0,0.0266,0.0258,0.026,0.0258,0.0256,0.0236,0.0234,0.0239,0.0211,0.0207,0.0224,0.0223,0.0185,0.0182,0.0178,0.0186,0.0162,0.016,0.0159,0.014,0.0141,0.0141,0,0,0,0,0,0,0.0266,0.0267,0.0261,0.0257,0.0255,0.0237,0.0242,0.0238,0.0234,0.0209,0.0204,0.0223,0.0185,0.018,0.0172,0.0184,0.016,0.0158,0.014,0.014,0.0141,0.0194,0,0,0,0,0,0,0.0266,0.0267,0.0273,0.0258,0.0256,0.0263,0.0242,0.0238,0.0233,0.0231,0.0207,0.0202,0.0184,0.0175,0.0171,0.0181,0.0157,0.0139,0.014,0.0141,0.0191,0.0196,0.02,0,0,0,0,0,0.0266,0.028,0.0274,0.0274,0.0265,0.0263,0.0261,0.0245,0.0234,0.0238,0.022,0.0203,0.0176,0.0174,0.0169,0.018,0.0139,0.014,0.0141,0.019,0.0195,0.02,0,0,0,0,0,0,0.0279,0.0278,0.0271,0.0282,0.0277,0.026,0.026,0.025,0.0238,0.0233,0.0208,0.0203,0.0199,0.0182,0.018,0.0175,0.0155,0.0155,0.0193,0.0198,0.0202,0.0218,0.0156,0,0,0,0,0,0.0285,0.0296,0.0288,0.0296,0.0295,0.0278,0.0274,0.0264,0.0252,0.0246,0.0229,0.021,0.0199,0.0193,0.0178,0.0177,0.0155,0.018,0.0184,0.0188,0.0197,0.0172,0.0175,0.0144,0.0144,0.0144,0,0,0.0291,0.0293,0.0297,0.03,0.0291,0.03,0.0275,0.0273,0.0283,0.0243,0.0248,0.0224,0.0201,0.02,0.0197,0.0188,0.0184,0.0189,0.0192,0.0199,0.0173,0.0176,0.0179,0.0144,0.0144,0.0144,0,0,0.0312,0.031,0.0327,0.0328,0.0323,0.0315,0.0318,0.0304,0.0302,0.0302,0.0275,0.026,0.0243,0.023,0.0221,0.0239,0.0205,0.0231,0.0267,0.0243,0.0246,0.0248,0.0219,0.0218,0.0235,0.0235,0.0235,0,0.0318,0.0342,0.033,0.0347,0.0356,0.0327,0.0348,0.0342,0.0328,0.0332,0.0312,0.0285,0.026,0.0263,0.0265,0.025,0.0227,0.0252,0.025,0.0251,0.0252,0.0222,0.022,0.0238,0.0238,0.0237,0.0237,0,0.0354,0.0372,0.0382,0.0398,0.0404,0.0416,0.0409,0.0412,0.04,0.039,0.0386,0.0348,0.0333,0.032,0.0298,0.0296,0.0274,0.0257,0.0239,0.0259,0.0226,0.0223,0.0242,0.0241,0.024,0.0239,0,0,0.0373,0.0403,0.0407,0.043,0.0435,0.0447,0.0465,0.0477,0.0497,0.0466,0.0485,0.0447,0.0415,0.0403,0.0367,0.0343,0.0323,0.0307,0.0304,0.0283,0.0266,0.0255,0.0251,0.0303,0.0303,0.0303,0.0238,0,0.0407,0.0458,0.0462,0.0508,0.0535,0.0527,0.0552,0.0556,0.0551,0.0558,0.0511,0.0507,0.0451,0.0442,0.0409,0.0351,0.0319,0.0342,0.0247,0.0244,0.0236,0.0249,0.026,0.0204,0.0235,0.0235,0.0234,0,0.0447,0.0479,0.0534,0.058,0.0591,0.0611,0.0651,0.0673,0.067,0.0665,0.064,0.0596,0.0557,0.0505,0.0411,0.0428,0.0352,0.0298,0.0294,0.0267,0.0229,0.0189,0.0197,0.0229,0.023,0.023,0.023,0,0.048,0.0531,0.0583,0.0598,0.064,0.0666,0.0686,0.0702,0.0739,0.0729,0.0742,0.0677,0.0656,0.0555,0.0435,0.0422,0.0329,0.0296,0.0212,0.021,0.0193,0.019,0.0225,0.0225,0.0225,0.0225,0.0226,0,0.0524,0.0563,0.0603,0.0632,0.0704,0.071,0.078,0.0793,0.082,0.0872,0.0796,0.0814,0.0667,0.0592,0.0466,0.0338,0.0349,0.0224,0.0197,0.0211,0.021,0.0212,0.0212,0.0223,0.0224,0.0224,0.0224,0,0.0558,0.0581,0.0646,0.0698,0.0724,0.0775,0.0851,0.09,0.0911,0.0977,0.0976,0.092,0.0825,0.067,0.0514,0.0394,0.0263,0.0209,0.0234,0.0212,0.0147,0.015,0.011,0.0109,0.0108,0.0108,0.0107,0,0.0581,0.0618,0.07,0.0747,0.0774,0.0849,0.091,0.0949,0.1009,0.105,0.1087,0.1012,0.0979,0.0742,0.052,0.0303,0.0267,0.016,0.0136,0.016,0.0137,0.0141,0.0145,0.0126,0.0126,0.0125,0.0125,0,0.0626,0.0652,0.0708,0.0807,0.0877,0.0971,0.1052,0.1115,0.1173,0.1219,0.1265,0.1239,0.1023,0.0811,0.0512,0.0357,0.0195,0.0149,0.0171,0.0161,0.0172,0.0151,0.0154,0.0123,0.0123,0.0124,0.0124,0.0124,0.0659,0.0706,0.0778,0.0874,0.0962,0.1073,0.115,0.1237,0.1341,0.141,0.1391,0.1349,0.1112,0.073,0.0473,0.019,0.0203,0.0087,0.0089,0.0091,0.0111,0.0122,0.0067,0.0067,0.0067,0.0067,0.0066,0,0.0701,0.0754,0.0839,0.0951,0.1045,0.1091,0.1237,0.1309,0.1427,0.1485,0.1513,0.1276,0.1043,0.0761,0.0354,0.0118,0.0092,0.0026,0.0048,0.0052,0.0055,0.0075,0.002,0.0019,0.0018,0.0017,0,0,0.0723,0.0803,0.0845,0.0996,0.1077,0.1209,0.1293,0.1399,0.1473,0.1521,0.1494,0.1452,0.1125,0.0821,0.0497,0.0261,0.0207,0.0204,0.0266,0.0336,0.0342,0.0113,0.0151,0,0,0,0,0]}],[{"header":{"parameterUnit":"m.s-1","parameterCategory":2,"la1":30.2991,"la2":30.254,"lo1":-89.0895,"lo2":-89.0444,"dy":0.0017,"dx":0.0017,"nx":28,"ny":28,"refTime":"2024-06-20T21:00:00:Z","depth":"4","parameterNumber":2,"parameterNumberName":"U-component_of_CURRENTS"},"data":[0,0,0,0,0,0,0,0,0,0,0,0,0,0,0,0,0,0,0,0,0,0,0,0,0,0,0,0,0,0,0,0,0,0,0,0,0,0,0,0,0,0,0,0,0,0,0,0,0,0,0,0,0,0,0,0,0,0,0.1605,0.1605,0,0.1641,0.1641,0.1641,0.1684,0.1684,0.1685,0.1686,0.1764,0.1765,0.1766,0,0,0,0,0,0,0,0,0,0,0,0,0,0.1584,0.1584,0.1605,0.1605,0.1606,0.1641,0.1641,0.1641,0.1683,0.1684,0.1685,0.1686,0.1763,0.1765,0.1766,0,0,0,0,0,0,0,0,0,0,0,0,0,0.1602,0.1584,0.1605,0.1632,0.1635,0.1641,0.1641,0.1642,0.1683,0.1684,0.1686,0.1687,0.1763,0.1765,0.1767,0.1755,0,0,0.1773,0.1774,0,0,0,0,0,0,0,0,0.1601,0.1603,0.1628,0.163,0.1634,0.166,0.1662,0.1682,0.1683,0.1663,0.1686,0.1687,0.1733,0.1738,0.1739,0.1759,0.1762,0.1773,0.1774,0.1775,0.1775,0,0,0,0,0,0,0,0.16,0.1601,0.1617,0.1628,0.1632,0.1647,0.1651,0.1666,0.1691,0.1665,0.1669,0.1675,0.1735,0.1737,0.1741,0.1763,0.1773,0.1775,0.1776,0.1777,0.1889,0.1891,0,0,0,0,0,0,0.1596,0.16,0.1616,0.1619,0.1622,0.1647,0.1651,0.1649,0.169,0.1697,0.1674,0.1677,0.1733,0.1739,0.1744,0.1832,0.1775,0.1777,0.1778,0.1887,0.189,0.1892,0,0,0,0,0,0,0.1596,0.1597,0.1615,0.1612,0.1616,0.1646,0.1644,0.1649,0.1689,0.1696,0.1704,0.1713,0.1734,0.1741,0.1789,0.1832,0.1778,0.1779,0.1885,0.1888,0.1891,0.1944,0,0,0,0,0,0,0.1595,0.1596,0.1614,0.1611,0.1616,0.1637,0.1643,0.1649,0.169,0.1695,0.1731,0.1738,0.1735,0.1786,0.1791,0.1833,0.1781,0.1883,0.1887,0.189,0.194,0.1948,0.1955,0,0,0,0,0,0.1594,0.16,0.1614,0.1617,0.1631,0.1638,0.1642,0.1666,0.1691,0.1707,0.1739,0.1738,0.1811,0.1789,0.1794,0.1838,0.1881,0.1886,0.1889,0.1937,0.1947,0.1955,0,0,0,0,0,0,0.1601,0.1605,0.162,0.163,0.1645,0.1646,0.1669,0.1687,0.1724,0.1745,0.1754,0.1762,0.1821,0.1822,0.1797,0.1882,0.1849,0.1855,0.1884,0.1893,0.1901,0.1901,0.1783,0,0,0,0,0,0.161,0.1621,0.1626,0.1641,0.165,0.167,0.1685,0.1702,0.1724,0.1744,0.1769,0.1803,0.1834,0.1859,0.1879,0.1922,0.1928,0.1957,0.1965,0.1971,0.1977,0.2023,0.2036,0.1905,0.1905,0.1905,0,0,0.1619,0.1625,0.1633,0.1645,0.1662,0.1678,0.1683,0.1713,0.1744,0.1746,0.1807,0.183,0.1852,0.19,0.1928,0.1912,0.2012,0.1976,0.1981,0.1983,0.2029,0.2041,0.2053,0.1908,0.1907,0.1907,0,0,0.1627,0.1647,0.1656,0.1671,0.1701,0.1711,0.1729,0.1752,0.1784,0.1835,0.185,0.1898,0.1945,0.1965,0.1982,0.2046,0.2049,0.2064,0.2107,0.2152,0.2163,0.2173,0.2196,0.2207,0.207,0.207,0.207,0,0.1646,0.165,0.1663,0.1677,0.1697,0.173,0.175,0.1781,0.1823,0.1852,0.1868,0.1955,0.1976,0.2033,0.2061,0.2064,0.2084,0.2068,0.2162,0.2172,0.218,0.2201,0.2213,0.2073,0.2073,0.2073,0.2072,0,0.1647,0.167,0.168,0.1709,0.1733,0.1757,0.1794,0.1837,0.1887,0.1916,0.1996,0.2028,0.2079,0.2101,0.2105,0.2182,0.2174,0.2163,0.2135,0.2197,0.2215,0.2226,0.2078,0.2076,0.2076,0.2075,0,0,0.1635,0.1673,0.1682,0.1701,0.1754,0.1766,0.183,0.188,0.1933,0.1994,0.206,0.2125,0.2154,0.2175,0.2193,0.2239,0.2322,0.2239,0.224,0.2255,0.2419,0.2245,0.224,0.2335,0.2338,0.2339,0.2405,0,0.1639,0.1663,0.1688,0.1731,0.1745,0.1799,0.1852,0.1911,0.1978,0.2051,0.2109,0.2183,0.218,0.2227,0.227,0.2317,0.2355,0.2304,0.2362,0.2364,0.2196,0.2248,0.2347,0.2414,0.2416,0.2418,0.2419,0,0.1625,0.1646,0.1681,0.1736,0.1751,0.1794,0.1884,0.1939,0.2045,0.2101,0.2182,0.2233,0.2322,0.2312,0.2412,0.2385,0.2409,0.2433,0.2436,0.226,0.2209,0.2341,0.2439,0.2438,0.2436,0.2435,0.2434,0,0.1586,0.1638,0.1667,0.1687,0.1758,0.1803,0.186,0.1961,0.2023,0.2153,0.2218,0.2309,0.2385,0.2434,0.2486,0.247,0.2581,0.2557,0.2415,0.2403,0.2516,0.2505,0.262,0.262,0.2619,0.2619,0.2619,0,0.1553,0.1582,0.1659,0.1673,0.1729,0.1794,0.1878,0.195,0.207,0.2143,0.225,0.2317,0.2428,0.2498,0.2518,0.2494,0.2607,0.2426,0.241,0.2536,0.2527,0.2524,0.2512,0.2622,0.2621,0.2621,0.262,0,0.1495,0.1545,0.1585,0.1673,0.1709,0.1756,0.1883,0.1938,0.2069,0.2173,0.2225,0.2363,0.2443,0.2514,0.2603,0.2522,0.2528,0.2489,0.2622,0.2612,0.231,0.23,0.233,0.2324,0.232,0.2316,0.2312,0,0.1459,0.1475,0.1577,0.1611,0.1658,0.1743,0.1797,0.1927,0.1987,0.2174,0.2207,0.2346,0.2414,0.239,0.2476,0.2481,0.2451,0.2427,0.2357,0.2299,0.2282,0.228,0.2277,0.2305,0.2304,0.2302,0.2301,0,0.1394,0.1451,0.1486,0.1557,0.162,0.1674,0.1766,0.1795,0.1943,0.2079,0.2133,0.2171,0.2248,0.2287,0.2307,0.2309,0.2426,0.2377,0.2386,0.232,0.2269,0.2257,0.2259,0.2285,0.2287,0.2289,0.229,0,0.1359,0.1371,0.1434,0.148,0.1556,0.158,0.1637,0.1693,0.1762,0.1954,0.1969,0.2103,0.223,0.2199,0.2223,0.2204,0.2163,0.2075,0.2099,0.2118,0.2015,0.1918,0.1815,0,0,0,0,0,0.1311,0.131,0.1349,0.1386,0.1456,0.1501,0.16,0.166,0.18,0.1783,0.1867,0.1923,0.1953,0.2023,0.1959,0.2131,0.2176,0.2046,0.2089,0.2194,0.2213,0.2109,0,0,0,0,0,0,0.1277,0.1312,0.1312,0.1298,0.1311,0.137,0.143,0.1524,0.1516,0.1666,0.1691,0.1799,0.1859,0.1973,0.1923,0.1941,0.1923,0.2127,0.2121,0.2183,0.2201,0.2216,0.2115,0,0,0,0,0]},{"header":{"parameterUnit":"m.s-1","parameterCategory":2,"la1":30.2991,"la2":30.254,"lo1":-89.0895,"lo2":-89.0444,"dy":0.0017,"dx":0.0017,"nx":28,"ny":28,"refTime":"2024-06-20T21:00:00:Z","depth":"4","parameterNumber":3,"parameterNumberName":"V-component_of_CURRENTS"},"data":[0,0,0,0,0,0,0,0,0,0,0,0,0,0,0,0,0,0,0,0,0,0,0,0,0,0,0,0,0,0,0,0,0,0,0,0,0,0,0,0,0,0,0,0,0,0,0,0,0,0,0,0,0,0,0,0,0,0,0.0272,0.0272,0,0.0258,0.0258,0.0258,0.0246,0.0246,0.0246,0.0246,0.0222,0.0221,0.0221,0,0,0,0,0,0,0,0,0,0,0,0,0,0.0258,0.0258,0.0272,0.0272,0.0271,0.0258,0.0258,0.0258,0.0246,0.0246,0.0246,0.0245,0.0222,0.0221,0.0221,0,0,0,0,0,0,0,0,0,0,0,0,0,0.0256,0.0259,0.0272,0.0264,0.0263,0.0258,0.0258,0.0258,0.0246,0.0246,0.0246,0.0245,0.0222,0.0222,0.0221,0.0219,0,0,0.0218,0.0218,0,0,0,0,0,0,0,0,0.0256,0.0257,0.0265,0.0265,0.0264,0.0254,0.0245,0.0245,0.0246,0.0252,0.0246,0.0245,0.0232,0.023,0.0228,0.0218,0.0217,0.0218,0.0218,0.0217,0.0217,0,0,0,0,0,0,0,0.0256,0.0257,0.0266,0.0265,0.0264,0.0251,0.0251,0.0244,0.0243,0.0252,0.0251,0.025,0.0231,0.0229,0.0227,0.0217,0.0218,0.0218,0.0217,0.0217,0.0214,0.0215,0,0,0,0,0,0,0.026,0.0257,0.0266,0.0266,0.026,0.0252,0.0252,0.0257,0.0243,0.0241,0.025,0.0249,0.023,0.0228,0.0226,0.0243,0.0217,0.0217,0.0216,0.0214,0.0215,0.0215,0,0,0,0,0,0,0.026,0.0262,0.0267,0.0261,0.0261,0.0253,0.0258,0.0257,0.0259,0.0242,0.024,0.0254,0.023,0.0227,0.0229,0.0241,0.0216,0.0216,0.0214,0.0214,0.0215,0.0264,0,0,0,0,0,0,0.026,0.0262,0.027,0.0261,0.0261,0.0273,0.0259,0.0257,0.0258,0.0257,0.0245,0.0242,0.023,0.0231,0.0229,0.024,0.0215,0.0213,0.0214,0.0215,0.0262,0.0267,0.027,0,0,0,0,0,0.026,0.0274,0.0271,0.0272,0.0272,0.0274,0.0273,0.0266,0.0259,0.0266,0.0257,0.0243,0.0234,0.0231,0.0228,0.0239,0.0213,0.0214,0.0214,0.026,0.0266,0.027,0,0,0,0,0,0,0.0271,0.0273,0.027,0.0284,0.0282,0.0272,0.0277,0.0271,0.0269,0.0267,0.025,0.0248,0.0252,0.0239,0.0236,0.024,0.022,0.022,0.0256,0.0261,0.0265,0.0276,0.0214,0,0,0,0,0,0.0277,0.029,0.0286,0.0297,0.0297,0.0288,0.0288,0.0283,0.0278,0.0277,0.0268,0.0258,0.0253,0.0252,0.0244,0.0249,0.0225,0.0253,0.0257,0.026,0.0267,0.0241,0.0243,0.0218,0.0218,0.0218,0,0,0.0284,0.0287,0.0294,0.03,0.0297,0.0307,0.0288,0.0292,0.0305,0.0275,0.0289,0.0272,0.0257,0.0263,0.0264,0.0255,0.0254,0.0262,0.0265,0.027,0.0242,0.0244,0.0246,0.0219,0.0218,0.0218,0,0,0.0304,0.0307,0.0323,0.0327,0.0328,0.0324,0.0328,0.0321,0.0324,0.0333,0.0314,0.0307,0.0301,0.0293,0.0288,0.031,0.0275,0.0304,0.0337,0.0311,0.0313,0.0314,0.0283,0.0281,0.0308,0.0308,0.0308,0,0.0311,0.0334,0.0327,0.0343,0.0354,0.0335,0.0355,0.0355,0.0352,0.0359,0.0346,0.0334,0.0318,0.0325,0.0331,0.032,0.0295,0.0321,0.0316,0.0317,0.0318,0.0285,0.0283,0.031,0.031,0.031,0.0309,0,0.0341,0.0362,0.0371,0.0389,0.0398,0.0412,0.0412,0.042,0.0417,0.0413,0.0418,0.0393,0.0386,0.0377,0.0363,0.0362,0.0339,0.0323,0.0305,0.0323,0.0288,0.0284,0.0314,0.0313,0.0312,0.0311,0,0,0.0354,0.0388,0.0392,0.0414,0.0426,0.0438,0.0462,0.0479,0.0498,0.0482,0.0501,0.0483,0.0459,0.0452,0.0424,0.0401,0.0379,0.0368,0.0365,0.034,0.0316,0.029,0.0283,0.0361,0.036,0.036,0.0288,0,0.0381,0.0427,0.0436,0.0482,0.0505,0.0507,0.0535,0.0547,0.0548,0.0558,0.0527,0.0529,0.0491,0.0486,0.0457,0.0401,0.0373,0.04,0.03,0.0297,0.0274,0.0279,0.0359,0.0285,0.0284,0.0283,0.0283,0,0.0409,0.044,0.0492,0.0541,0.0552,0.0576,0.0618,0.0643,0.0648,0.0648,0.0634,0.0602,0.0572,0.0533,0.0446,0.0464,0.0397,0.0346,0.0341,0.03,0.0265,0.0263,0.0276,0.0276,0.0277,0.0277,0.0278,0,0.0426,0.0479,0.0528,0.0544,0.0592,0.0622,0.0648,0.067,0.0703,0.0702,0.0709,0.0663,0.0643,0.0557,0.0452,0.0447,0.0346,0.0325,0.0237,0.0234,0.0256,0.0256,0.026,0.026,0.026,0.0261,0.0261,0,0.0452,0.0491,0.0543,0.0569,0.0638,0.0656,0.0721,0.074,0.0767,0.0804,0.0756,0.0757,0.0647,0.0574,0.047,0.0344,0.0357,0.0244,0.0216,0.0278,0.0281,0.0253,0.0253,0.0258,0.0258,0.0259,0.0259,0,0.0466,0.0497,0.0558,0.062,0.0649,0.0699,0.0777,0.0818,0.0835,0.0877,0.0878,0.0829,0.0733,0.061,0.0469,0.0373,0.0252,0.0201,0.0278,0.0255,0.015,0.0154,0.0097,0.0096,0.0094,0.0093,0.0092,0,0.0476,0.0509,0.0598,0.0642,0.0675,0.0751,0.0807,0.0854,0.0894,0.0918,0.0934,0.0861,0.0806,0.0591,0.0458,0.0256,0.0222,0.0152,0.0149,0.0156,0.0135,0.014,0.0145,0.0091,0.009,0.009,0.009,0,0.0496,0.053,0.0582,0.0673,0.0742,0.0824,0.0897,0.0929,0.098,0.0995,0.0969,0.0863,0.0752,0.0588,0.0431,0.0286,0.0195,0.0138,0.0139,0.0136,0.0148,0.0129,0.0135,0.0085,0.0086,0.0086,0.0087,0,0.0512,0.055,0.0618,0.0699,0.0788,0.0865,0.0907,0.0948,0.0992,0.1005,0.0996,0.0879,0.082,0.0603,0.0461,0.0314,0.027,0.0208,0.0205,0.0208,0.0258,0.0289,0.0249,0,0,0,0,0,0.0525,0.0564,0.0635,0.0722,0.0808,0.0862,0.0955,0.0987,0.1029,0.1013,0.1005,0.0899,0.0691,0.0609,0.0457,0.0427,0.024,0.0241,0.0166,0.0062,0.0067,0.0104,0,0,0,0,0,0,0.053,0.0596,0.063,0.0726,0.0782,0.0883,0.0943,0.0975,0.0965,0.098,0.0876,0.0837,0.0641,0.0771,0.0444,0.0403,0.0328,0.0153,0.0149,0.0059,0.0063,0.0067,0.0107,0,0,0,0,0]}]]